Regional Weather Roundup
Issued by NWS Charleston, SC

Current Version | Previous Version | Text Only | Print | Product List | Glossary Off
Versions: 1 2 3 4 5 6 7 8 9 10 11 12 13 14 15 16 17 18 19 20 21 22 23 24 25 26 27 28 29 30 31 32 33 34 35 36 37 38 39 40 41 42 43 44 45 46 47 48 49 50
000 ASUS42 KCHS 280711 RWRCHS REGIONAL WEATHER ROUNDUP NATIONAL WEATHER SERVICE CHARLESTON SC 200 AM EST SAT FEB 28 2015 NOTE: "FAIR" INDICATES FEW OR NO CLOUDS BELOW 12,000 FEET WITH NO SIGNIFICANT WEATHER AND/OR OBSTRUCTIONS TO VISIBILITY. NOT ALL STATIONS ARE QUALITY CONTROLLED BY THE NATIONAL WEATHER SERVICE. USE DATA WITH CAUTION...ESPECIALLY DEWPOINT OBSERVATIONS. SCZ027-030-031-034>040-042>050-280800- ...SOUTHEAST SOUTH CAROLINA... CITY SKY/WX TMP DP RH WIND PRES REMARKS N CHARLESTON PTCLDY 39 35 86 NE8 30.49R WCI 33 WATERFRONT PRK NOT AVBL MOUNT PLEASANT LGT RAIN 37 36 93 N3 30.48F PINOPOLIS N/A 43 37 81 E8 30.43R MONCKS CORNER FAIR 39 36 87 NE6 30.51R WCI 35 SUMMERVILLE FAIR 36 36 100 N5 30.50S WCI 32 BEAUFORT MCAS PTCLDY 43 36 76 NE7 30.47R BEAUFORT ARPT FAIR 43 39 87 NE9 30.46R HILTON HEAD IS MOCLDY 45 39 81 N8 30.46S WALTERBORO PTSUNNY 39 36 87 NE5 30.49S WCI 36 ALLENDALE FAIR 39 36 87 CALM 30.48R ...SOUTHERN MIDLANDS AND PEE DEE... CITY SKY/WX TMP DP RH WIND PRES REMARKS GEORGETOWN NOT AVBL KINGSTREE NOT AVBL ORANGEBURG PTCLDY 38 33 82 NE6 30.50R WCI 33 BARNWELL FAIR 36 36 100 CALM 30.50R AIKEN FAIR 34 34 100 NE6 30.52R WCI 29 MANNING FAIR 37 36 93 NE3 30.52R COLUMBIA CLEAR 41 29 62 E8 30.52R SUMTER CLEAR 33 28 81 NE7 30.51R HAZE WCI 27 FLORENCE CLEAR 35 27 72 NE9 30.54R WCI 28 MYRTLE BEACH PTCLDY 37 30 75 NE8 30.55R WCI 31 N MYRTLE BEACH PTCLDY 37 31 78 NE7 30.53R WCI 32 $$ GAZ063-065-086>088-099>101-113>116-118-119-134>141-150-280800- ...SOUTHEAST GEORGIA... CITY SKY/WX TMP DP RH WIND PRES REMARKS SAVANNAH ARPT MOCLDY 39 35 86 N7 30.45F WCI 34 HUNTER AAF MOCLDY 43 37 79 NE5 30.41F FORT STEWART MOCLDY 41 37 85 NE8 30.41F STATESBORO MOCLDY 38 38 100 CALM 30.46S SYLVANIA PTSUNNY 39 37 91 E6 30.47S WCI 35 CLAXTON FAIR 37 37 100 CALM 30.45S ...CSRA...CENTRAL AND FAR SOUTHEAST GEORGIA... CITY SKY/WX TMP DP RH WIND PRES REMARKS THOMSON PTCLDY 35 35 100 CALM 30.51S AUGUSTA-BUSH CLEAR 34 32 92 CALM 30.49R AUGUSTA-DANIEL CLEAR 43 35 73 E6 30.48R SWAINSBORO FAIR 41 37 87 E5 30.46S VIDALIA MOCLDY 41 37 87 NE6 30.45S EASTMAN FAIR 40 40 100 E3 30.46S HAZLEHURST FAIR 42 40 94 NE3 30.43R ALMA CLOUDY 42 37 82 NE6 30.42S WAYCROSS CLOUDY 48 41 75 NE9 30.41R JESUP CLOUDY 46 41 81 NE7 30.42S BAXLEY FAIR 43 37 81 E5 30.42S BRUNSWICK CLOUDY 50 39 66 NE8G17 30.40S SAINT SIMONS CLOUDY 50 41 71 NE16G23 30.38F $$ SCZ027-028-034-036>038-045-046-048>050-GAZ119-141-280800- ...LAKE AND SUPPLEMENTAL COASTAL OBSERVATIONS... STATION/POSITION TIME TEMP WIND PRES WAVE SWELL AIR SEA DIR/SP/G HT/PER HT/PER/DIR (UTC) (F) (DEG/KT/KT) (MB) (FT/S) (FT/S/D) UPR LAKE MARION NOT AVBL WINYAH BAY 0545 42 30/ 5 1031.0 LAKE MURRAY 0600 41 70/ 6/ 11 1032.2R ACE BASIN NERRS NOT AVBL FORT PULASKI 0600 46 49 10/ 9/ 11 1031.2S SAPELO ISLAND 0600 49 40/ 11 1029.0F $$ ANZ835-935-AMZ111-154-330-350-352-354-370-450-454-472-280800- ...C-MAN AND BUOY OBSERVATIONS... STATION/POSITION TIME TEMP WIND PRES WAVE SWELL AIR SEA DIR/SP/G HT/PER HT/PER/DIR (UTC) (F) (DEG/KT/KT) (MB) (FT/S) (FT/S/D) BUOY 41004 0650 56 65 50/ 21/ 25 1029.9R 6/ 6 3/12 BUOY 41008 0650 53 52 40/ 17/ 21 1028.4F 6/ 6 2/110/13 FOLLY BEACH CMAN 0700 45 20/ 13/ 17 1032.0F CAPERS NEARSHORE NOT AVBL FRIPP NEARSHORE 0600 49 50/ 17/ 19 1029.5S STATION/POSITION TIME TEMP WIND PRES WAVE SWELL AIR SEA DIR/SP/G HT/PER HT/PER/DIR (UTC) (F) (DEG/KT/KT) (MB) (FT/S) (FT/S/D) 5E ST. MARYS GA 0551 53 N/A 6/ 6 2/100/11 FRYING PAN BUOY 0650 49 62 50/ 19/ 23 1032.8R 6/ 6 2/ 50/10 BUOY 41025 NOT AVBL CAPE LOOKOUT NC 0700 35 10/ 13/ 16 1034.4R BUOY 41002 0650 65 70 40/ 17/ 21 1027.0F 9/ 9 7/ 30/ 9 BUOY 41010 0620 67 71 60/ 21/ 25 1024.2F ST AUGUSTINE FL 0700 55 360/ 19/ 21 1026.5F $$

USA.gov is the U.S. government's official web portal to all federal, state and local government web resources and services.